Location: Jackson Park
(37.2862°N, 79.9123°W)
Time: 20:42:01
(UTC+00:00)

S-56A Canister/Altair - Pass Details

Date: 15 May 2026
Orbit: 633 x 2484 km, 38.9° (Epoch: 6 June)

Event Time Altitude Azimuth Distance (km) Brightness Sun altitude
Rises 23:43:49 0° 213° (SSW) 3,535 11.1 6.1°
Reaches altitude 10° 23:47:12 10° 198° (SSW) 2,355 10.0 5.5°
Maximum altitude 23:51:05 21° 150° (SSE) 1,541 8.7 4.8°
Drops below altitude 10° 23:54:30 10° 100° (E) 2,035 9.1 4.1°
Sets 23:57:09 0° 83° (E) 2,915 10.0 3.6°
